Torrington, WY

6:43 PM MDT on May 23, 2018 (GMT -0600)
Torrington Municipal

Weather History for KTOR - January, 2014

Change the Weather History Date:

Sunday, January 5, 2014

  Actual Average Record
Temperature  
Mean Temperature 2 °F 28 °F  
Max Temperature 14 °F 41 °F 65 °F (2012)
Min Temperature -10 °F 14 °F -25 °F (2004)
Degree Days  
Heating Degree Days 63 37  
Month to date heating degree days 207 189  
Since 1 July heating degree days 2921 2945  
Cooling Degree Days 0 0  
Month to date cooling degree days 0 0  
Year to date cooling degree days 0 0  
Moisture  
Dew Point -1 °F    
Average Humidity 74    
Maximum Humidity 92    
Minimum Humidity 56    
Precipitation  
Precipitation 0.02 in 0.01 in 0.04 in (2014)
Month to date precipitation 0.10 0.04  
Year to date precipitation 0.10 0.04  
Sea Level Pressure  
Sea Level Pressure 30.37 in    
Wind  
Wind Speed 11 mph (North)    
Max Wind Speed 25 mph    
Max Gust Speed 33 mph    
Visibility 6 miles    
Events Snow    
T = Trace of Precipitation, MM = Missing Value Source: NWS Daily Summary

Daily Weather History Graph

Daily Weather History Graph

Search for Another Location

Airport or City:

Astronomy

Jan. 05, 2014 Rise Set
Actual Time 7:24 AM MST 4:39 PM MST
Civil Twilight 6:53 AM MST 5:10 PM MST
Nautical Twilight 6:18 AM MST 5:45 PM MST
Astronomical Twilight 5:44 AM MST 6:19 PM MST
Moon 10:02 AM MST (1/5) 10:16 PM MST (1/5)
Length of Visible Light 10h 17m
Length of Day
9h 14m
Waxing Crescent, 25% of the Moon is Illuminated
Jan 5
Waxing Crescent
Jan 7
First Quarter
Jan 15
Full
Jan 23
Last Quarter
Jan 30
New

Hourly Weather History & Observations

Time (MST) Temp. Windchill Dew Point Humidity Pressure Visibility Wind Dir Wind Speed Gust Speed Precip Events Conditions
12:06 AM 14.0 °F 0.5 °F 8.6 °F 79% 30.07 in 9.0 mi East 11.5 mph - N/A   Overcast
12:49 AM 12.2 °F -1.8 °F 8.6 °F 85% 30.07 in 2.0 mi East 11.5 mph - 0.00 in Snow Light Snow
12:53 AM 12.9 °F 0.7 °F 9.0 °F 84% 30.23 in 1.8 mi ESE 9.2 mph - 0.00 in Snow Light Snow
1:11 AM 12.2 °F 0.7 °F 8.6 °F 85% 30.08 in 2.5 mi East 8.1 mph - 0.00 in Snow Light Snow
1:26 AM 12.2 °F 1.7 °F 8.6 °F 85% 30.08 in 1.8 mi East 6.9 mph - 0.00 in Snow Light Snow
1:39 AM 12.2 °F 2.9 °F 8.6 °F 85% 30.09 in 1.2 mi East 5.8 mph - 0.00 in Snow Light Snow
1:53 AM 12.9 °F 3.8 °F 10.0 °F 88% 30.26 in 1.5 mi East 5.8 mph - 0.00 in Snow Light Snow
2:24 AM 12.2 °F -0.2 °F 8.6 °F 85% 30.12 in 0.8 mi ENE 9.2 mph - 0.01 in Snow Light Snow
2:34 AM 12.2 °F 2.9 °F 8.6 °F 85% 30.13 in 1.0 mi East 5.8 mph - 0.01 in Snow Light Snow
2:53 AM 10.9 °F 0.2 °F 8.1 °F 88% 30.29 in 1.2 mi East 6.9 mph - 0.01 in Snow Light Snow
3:53 AM 10.0 °F -2.9 °F 6.1 °F 84% 30.33 in 1.5 mi North 9.2 mph - 0.00 in Snow Light Snow
4:44 AM 8.6 °F -3.7 °F 3.2 °F 79% 30.18 in 2.5 mi NNW 8.1 mph - 0.01 in Snow Light Snow
4:53 AM 8.1 °F -4.3 °F 3.9 °F 83% 30.37 in 2.5 mi NNW 8.1 mph - 0.01 in Snow Light Snow
5:00 AM 8.6 °F -3.7 °F 3.2 °F 79% 30.18 in 3.0 mi NNW 8.1 mph - 0.00 in Snow Light Snow
5:13 AM 8.6 °F -2.6 °F 3.2 °F 79% 30.19 in 2.5 mi NNW 6.9 mph - 0.00 in Snow Light Snow
5:24 AM 8.6 °F -3.7 °F 3.2 °F 79% 30.20 in 4.0 mi NNW 8.1 mph - 0.00 in Snow Light Snow
5:49 AM 8.6 °F -3.7 °F 3.2 °F 79% 30.21 in 2.5 mi NNW 8.1 mph - 0.00 in Snow Light Snow
5:53 AM 8.1 °F -4.3 °F 3.9 °F 83% 30.40 in 2.0 mi NNW 8.1 mph - 0.00 in Snow Light Snow
6:16 AM 8.6 °F -5.5 °F 3.2 °F 79% 30.21 in 3.0 mi NNW 10.4 mph - 0.00 in Snow Light Snow
6:53 AM 7.0 °F -5.7 °F 1.0 °F 77% 30.42 in 10.0 mi NNW 8.1 mph - 0.00 in   Overcast
7:53 AM 6.1 °F -6.8 °F -0.9 °F 73% 30.44 in 10.0 mi WNW 8.1 mph - N/A   Partly Cloudy
8:53 AM 6.1 °F -9.5 °F -2.0 °F 69% 30.48 in 10.0 mi NW 11.5 mph - N/A   Clear
9:53 AM 7.0 °F -11.6 °F -5.1 °F 58% 30.49 in 10.0 mi NNW 17.3 mph 21.9 mph N/A   Clear
10:53 AM 7.0 °F -11.6 °F -2.9 °F 64% 30.50 in 9.0 mi NNW 17.3 mph - 0.00 in   Scattered Clouds
11:53 AM 8.1 °F -11.7 °F -2.9 °F 61% 30.49 in 9.0 mi NNW 20.7 mph 29.9 mph N/A   Clear
12:18 PM 6.8 °F -10.7 °F -0.4 °F 72% 30.27 in 2.5 mi NNW 15.0 mph 27.6 mph 0.00 in   Mostly Cloudy
12:34 PM 6.8 °F -12.9 °F -2.2 °F 67% 30.28 in 3.0 mi North 19.6 mph 27.6 mph 0.00 in Snow Blowing Snow
12:42 PM 6.8 °F -11.3 °F -2.2 °F 67% 30.28 in 4.0 mi NNW 16.1 mph 31.1 mph 0.00 in Snow Blowing Snow
12:53 PM 6.1 °F -13.8 °F -5.1 °F 60% 30.52 in 8.0 mi North 19.6 mph 29.9 mph 0.00 in   Clear
1:53 PM 5.0 °F -13.0 °F -6.0 °F 61% 30.55 in 10.0 mi NNW 15.0 mph 27.6 mph N/A   Mostly Cloudy
2:53 PM 1.0 °F -19.3 °F -9.9 °F 60% 30.61 in 10.0 mi North 17.3 mph 28.8 mph N/A   Clear
3:53 PM -0.0 °F -21.3 °F -11.9 °F 57% 30.64 in 10.0 mi NNW 18.4 mph 29.9 mph N/A   Partly Cloudy
4:53 PM -2.9 °F -18.8 °F -14.1 °F 59% 30.67 in 10.0 mi WNW 9.2 mph 23.0 mph N/A   Clear
5:53 PM -4.0 °F -24.5 °F -15.0 °F 59% 30.68 in 10.0 mi NW 15.0 mph 21.9 mph N/A   Clear
6:53 PM -5.1 °F -25.1 °F -16.1 °F 59% 30.68 in 10.0 mi WNW 13.8 mph 20.7 mph N/A   Clear
7:53 PM -7.1 °F -22.8 °F -17.0 °F 62% 30.69 in 10.0 mi WNW 8.1 mph - N/A   Clear
8:53 PM -8.0 °F -21.0 °F -17.0 °F 65% 30.67 in 10.0 mi West 5.8 mph - N/A   Clear
9:53 PM -8.0 °F -25.0 °F -16.1 °F 68% 30.66 in 10.0 mi West 9.2 mph - N/A   Clear
10:53 PM -8.0 °F -22.5 °F -17.0 °F 65% 30.61 in 10.0 mi NNW 6.9 mph - N/A   Clear
11:53 PM -9.0 °F - -17.0 °F 68% 30.57 in 10.0 mi Calm Calm - N/A   Clear